PST,Max TemperatureF,Mean TemperatureF,Min TemperatureF,Max Dew PointF,MeanDew PointF,Min DewpointF,Max Humidity, Mean Humidity, Min Humidity, Max Sea Level PressureIn, Mean Sea Level PressureIn, Min Sea Level PressureIn, Max VisibilityMiles, Mean VisibilityMiles, Min VisibilityMiles, Max Wind SpeedMPH, Mean Wind SpeedMPH, Max Gust SpeedMPH,PrecipitationIn, CloudCover, Events, WindDirDegrees
2012-12-1,57,52,48,50,48,45,100,92,67,30.19,30.13,30.10,10,7,0,21,15,28,0.10,7,Fog-Rain,308
2012-12-2,55,50,46,50,48,45,100,92,77,30.12,30.08,30.04,10,8,0,22,12,30,0.11,8,Rain,305
2012-12-3,57,46,35,50,43,25,100,86,55,30.25,30.18,30.09,10,7,0,21,12,25,0.02,3,Fog-Rain,310
2012-12-4,60,46,32,39,31,21,87,59,36,30.32,30.27,30.23,10,10,9,13,5,,0.00,0,,115
2012-12-5,62,48,33,36,29,19,81,47,26,30.26,30.18,30.12,10,10,5,17,8,22,0.00,2,,305
2012-12-6,53,47,41,48,43,36,100,87,58,30.12,30.08,30.03,10,4,0,18,11,22,0.00,6,Fog-Rain,309
2012-12-7,57,48,39,46,43,39,100,93,55,30.14,30.09,30.06,10,5,0,16,7,,0.00,7,Fog,309
2012-12-8,59,42,26,39,34,18,100,83,20,30.07,30.04,29.99,10,6,0,18,5,,0.00,3,Fog-Rain,322
2012-12-9,62,45,28,37,27,18,100,62,18,30.24,30.12,30.06,10,6,0,16,4,18,0.00,3,Fog-Rain,109
2012-12-10,62,47,32,30,22,19,60,38,20,30.25,30.20,30.16,10,10,8,13,8,17,0.00,0,,114
2012-12-11,66,46,26,23,20,18,69,43,16,30.16,30.04,29.92,10,10,8,15,4,17,0.00,0,,316
2012-12-12,51,38,26,39,29,19,100,69,44,29.91,29.85,29.81,10,8,2,14,4,21,0.22,3,Rain-Snow,294
2012-12-13,37,34,32,37,33,32,100,99,87,29.82,29.78,29.73,10,4,0,13,9,,0.03,8,Fog-Rain-Snow,306
2012-12-14,37,32,28,32,29,23,100,88,69,29.92,29.82,29.73,10,6,0,16,11,22,0.00,6,Fog-Rain,308
2012-12-15,39,34,28,32,28,23,100,84,60,30.03,29.98,29.91,10,7,2,20,12,25,0.00,4,,306
2012-12-16,51,40,28,41,35,25,100,82,54,30.12,30.07,30.01,10,8,0,18,10,22,0.00,6,Fog-Rain,303
2012-12-17,48,44,41,46,42,41,100,95,81,30.14,30.05,29.94,10,5,0,21,14,24,0.00,7,Fog-Rain,308
2012-12-18,44,35,26,45,32,19,100,92,64,29.99,29.88,29.82,10,6,0,29,17,39,0.76,7,Rain,305
2012-12-19,39,31,23,23,12,1,93,52,21,30.30,30.18,29.99,10,10,8,24,15,33,0.00,2,,120
2012-12-20,41,34,28,9,4,1,38,29,19,30.28,30.20,30.13,10,10,8,24,19,31,0.00,0,,119
2012-12-21,53,40,26,14,8,3,55,31,14,30.13,30.07,30.03,10,10,8,22,13,28,0.00,0,,118
2012-12-22,57,42,26,39,21,0,100,50,15,30.14,30.07,30.02,10,9,1,20,5,24,0.00,3,Rain,325
2012-12-23,48,42,37,39,37,34,100,85,62,30.15,30.10,30.01,10,9,3,21,12,25,0.03,6,Rain,307
2012-12-24,48,39,30,45,37,28,100,91,66,30.14,30.07,29.98,10,7,0,24,16,38,0.59,6,Fog-Rain,296
2012-12-25,41,36,32,28,19,14,75,49,33,30.14,30.05,29.87,10,10,6,17,11,22,0.00,1,Rain,105
2012-12-26,41,36,32,36,33,30,100,95,70,29.95,29.91,29.84,10,5,0,28,14,34,1.89,8,Rain-Snow,303
2012-12-27,37,32,28,34,32,28,100,98,87,30.12,30.02,29.94,10,6,0,24,15,32,0.28,8,Fog-Rain-Snow,306
2012-12-28,41,32,23,28,20,16,100,64,39,30.15,30.10,30.03,10,9,0,18,8,22,0.00,2,Fog,118
2012-12-29,41,34,26,27,21,16,93,59,42,30.03,29.97,29.92,10,10,8,21,11,24,0.00,5,Thunderstorm,115
2012-12-30,32,31,30,32,31,27,100,96,80,30.08,29.97,29.92,10,4,0,16,7,21,0.66,8,Rain-Snow,305
2012-12-31,39,31,23,32,27,14,100,86,36,30.21,30.15,30.07,10,7,0,21,5,28,0.00,3,Rain,284